Regional Weather Roundup
Issued by NWS

Home | Current Version | Previous Version | Text Only | Print | Product List | Glossary Off
Versions: 1 2 3 4 5 6 7 8 9 10 11 12 13 14 15 16 17 18 19 20 21 22 23 24 25 26 27 28 29 30 31 32 33 34 35 36 37 38 39 40 41 42 43 44 45 46 47 48 49 50

175
ASUS45 KCYS 270510
RWRWY

WYOMING REGIONAL WEATHER ROUNDUP
NATIONAL WEATHER SERVICE CHEYENNE WY
1000 PM MST SUN FEB 26 2017

NOTE:  "FAIR" INDICATES FEW OR NO CLOUDS BELOW 12,000 FEET
WITH NO SIGNIFICANT WEATHER AND/OR OBSTRUCTIONS TO VISIBILITY.

WYZ001-270600-
YELLOWSTONE NATIONAL PARK

CITY           SKY/WX    TMP DP  RH WIND       PRES   REMARKS
LK YELLOWSTONE   N/A     10   8  92 CALM      29.58S
W YELLOWSTONE  NOT AVBL

$$
WYZ002>013-054>058-071-098>099-270600-
NORTHERN WYOMING

CITY           SKY/WX    TMP DP  RH WIND       PRES   REMARKS
JACKSON        CLOUDY    16  16 100 SW9       29.64F WCI   4
CODY           FAIR      21   9  59 SE8       29.61F WCI  11
GREYBULL       FAIR      27  17  66 SE8       29.66F WCI  19
WORLAND        FAIR      23  14  68 SE12      29.65F WCI  12
SHERIDAN       FAIR      24  16  71 SW13      29.63F WCI  12
BUFFALO        FAIR      19   5  54 NW5       29.62F WCI  12
GILLETTE       CLOUDY    23  12  62 S13       29.65F WCI  11
HULETT         CLOUDY    27  14  59 CALM      29.70F
NEWCASTLE      FAIR      18  10  73 SE13      29.75F WCI   4

$$
WYZ014>020-022>026-101>103-270600-
CENTRAL WYOMING

CITY           SKY/WX    TMP DP  RH WIND       PRES   REMARKS
BIG PINEY      CLOUDY     6   2  83 CALM      29.69F
PINEDALE       MOCLDY     7   0  72 SE3       29.69F
DUBOIS         MOCLDY    14   3  62 NW16      29.58S WCI  -2
LANDER         FAIR      11  -1  58 NE7       29.63S WCI   0
RIVERTON       FAIR       9   3  77 NW6       29.66F WCI  -1
CASPER         FAIR      22   6  50 SW21      29.68F WCI   6
DOUGLAS        FAIR      20   0  41 W9        29.71F WCI   9

$$
WYZ021-027>030-104>119-270600-
SOUTHERN WYOMING

CITY           SKY/WX    TMP DP  RH WIND       PRES   REMARKS
EVANSTON       CLOUDY    22  11  62 W5        29.63F WCI  16
FORT BRIDGER   PTCLDY    16   5  62 S6        29.68F WCI   7
ROCK SPRINGS   FAIR      12  -2  53 SE8       29.69F WCI   0
DIXON            N/A     27   7  42 S12G24    29.77F WCI  16
RAWLINS        FAIR      12   1  61 CALM      29.71F
SARATOGA       FAIR      14   3  62 S9        29.71F WCI   2
LARAMIE        FAIR      20   1  43 S12G17    29.69F WCI   8
CHEYENNE       FAIR      12   4  70 CALM      29.76S
TORRINGTON     FAIR      12   4  70 SE3       29.79S
PINE BLUFFS    FAIR      25  12  58 SE13G18   29.79F WCI  13

$$




USA.gov is the U.S. government's official web portal to all federal, state and local government web resources and services.